Weather History for Cincinnati, OH

Change the Weather History Date:

Wednesday, February 13, 2013

  Actual Average Record
Temperature  
Mean Temperature 29 °F -  
Max Temperature 34 °F 41 °F 69 °F (1961)
Min Temperature 23 °F 24 °F 1 °F (1979)
Degree Days  
Heating Degree Days 36    
Moisture  
Dew Point 28 °F    
Average Humidity 91    
Maximum Humidity 100    
Minimum Humidity 80    
Precipitation  
Precipitation 0.02 in - - ()
Sea Level Pressure  
Sea Level Pressure 29.87 in    
Wind  
Wind Speed 3 mph (NNW)    
Max Wind Speed 12 mph    
Max Gust Speed -    
Visibility 4 miles    
Events Fog , Snow    
Averages and records for this station are not official NWS values.
T = Trace of Precipitation, MM = Missing Value Source: NWS Daily Summary

Daily Weather History Graph

Daily Weather History Graph

Search for Another Location

Airport:

Trip Planner

Search our weather history database for the weather conditions in past years. The results will help you decide how hot, cold, wet, or windy it might be!

Date:

Astronomy

Feb. 13, 2013 Rise Set
Actual Time 7:31 AM EST 6:12 PM EST
Civil Twilight 7:03 AM EST 6:40 PM EST
Nautical Twilight 6:32 AM EST 7:11 PM EST
Astronomical Twilight 6:01 AM EST 7:42 PM EST
Moon 9:02 AM EST (2/13) 10:12 PM EST (2/13)
Length of Visible Light 11h 36m
Length of Day
10h 41m
Waxing Crescent, 13% of the Moon is Illuminated
Feb 13
Waxing Crescent
Feb 17
First Quarter
Feb 25
Full
Mar 4
Last Quarter
Mar 11
New

Hourly Weather History & Observations

Time (EST) Temp. Windchill Dew Point Humidity Pressure Visibility Wind Dir Wind Speed Gust Speed Precip Events Conditions
12:53 AM 28.9 °F - 26.1 °F 89% 29.93 in 10.0 mi Calm Calm - N/A   Clear
1:53 AM 30.0 °F - 27.0 °F 88% 29.92 in 10.0 mi Calm Calm - N/A   Clear
2:53 AM 32.0 °F 28.7 °F 27.0 °F 82% 29.90 in 10.0 mi NNE 3.5 mph - N/A   Partly Cloudy
3:53 AM 30.9 °F 27.5 °F 27.0 °F 85% 29.89 in 10.0 mi NE 3.5 mph - N/A   Scattered Clouds
4:53 AM 33.1 °F 27.7 °F 28.9 °F 85% 29.86 in 8.0 mi NNE 5.8 mph - N/A   Overcast
5:53 AM 33.1 °F 26.9 °F 28.9 °F 85% 29.85 in 7.0 mi NNE 6.9 mph - N/A   Overcast
6:53 AM 32.0 °F 23.0 °F 28.0 °F 85% 29.81 in 7.0 mi NNE 11.5 mph - N/A   Overcast
7:53 AM 32.0 °F 25.6 °F 27.0 °F 82% 29.82 in 6.0 mi North 6.9 mph - N/A   Haze
8:49 AM 32.0 °F 27.5 °F 26.6 °F 80% 29.84 in 5.0 mi North 4.6 mph - N/A   Haze
8:53 AM 32.0 °F - 27.0 °F 82% 29.86 in 5.0 mi Calm Calm - N/A   Haze
9:53 AM 32.0 °F 27.5 °F 27.0 °F 82% 29.88 in 5.0 mi NNW 4.6 mph - N/A   Haze
10:00 AM 32.0 °F 24.8 °F 26.6 °F 80% 29.86 in 2.0 mi North 8.1 mph - 0.00 in Snow Light Snow
10:13 AM 30.2 °F 26.7 °F 28.4 °F 93% 29.87 in 1.0 mi NNW 3.5 mph - 0.00 in Snow Light Snow
10:53 AM 30.9 °F 26.2 °F 30.0 °F 96% 29.87 in 0.5 mi NNE 4.6 mph - 0.00 in Fog , Snow Snow
11:18 AM 30.2 °F 26.7 °F 30.2 °F 100% 29.85 in 0.2 mi NNE 3.5 mph - 0.02 in Fog , Snow Heavy Snow
11:25 AM 30.2 °F 24.3 °F 30.2 °F 100% 29.85 in 0.5 mi North 5.8 mph - 0.02 in Fog , Snow Snow
11:53 AM 30.9 °F 26.2 °F 30.0 °F 96% 29.86 in 1.0 mi North 4.6 mph - 0.02 in Snow Light Snow
12:08 PM 30.2 °F 24.3 °F 28.4 °F 93% 29.84 in 1.0 mi North 5.8 mph - 0.00 in Snow Light Snow
12:39 PM 30.2 °F 25.4 °F 30.2 °F 100% 29.83 in 0.8 mi NNW 4.6 mph - 0.00 in Snow Light Snow
12:53 PM 30.9 °F 25.2 °F 28.9 °F 92% 29.85 in 0.5 mi NNW 5.8 mph - 0.00 in Fog , Snow Snow
1:02 PM 30.2 °F - 30.2 °F 100% 29.82 in 0.5 mi Calm Calm - 0.00 in Fog , Snow Snow
1:11 PM 30.2 °F - 30.2 °F 100% 29.82 in 0.5 mi Calm Calm - 0.00 in Fog , Snow Snow
1:53 PM 30.9 °F - 30.0 °F 96% 29.83 in 0.8 mi Calm Calm - 0.00 in Snow Light Snow
2:02 PM 30.2 °F - 30.2 °F 100% 29.81 in 1.2 mi Calm Calm - 0.00 in Snow Light Snow
2:15 PM 32.0 °F - 30.2 °F 93% 29.81 in 2.5 mi Calm Calm - 0.00 in   Overcast
2:21 PM 32.0 °F - 30.2 °F 93% 29.81 in 3.0 mi Calm Calm - 0.00 in   Overcast
2:53 PM 33.1 °F 27.7 °F 30.0 °F 89% 29.83 in 5.0 mi NNW 5.8 mph - 0.00 in   Overcast
3:53 PM 34.0 °F 29.8 °F 28.9 °F 82% 29.84 in 7.0 mi West 4.6 mph - N/A   Mostly Cloudy
4:12 PM 33.8 °F 29.6 °F 30.2 °F 87% 29.83 in 7.0 mi West 4.6 mph - N/A   Mostly Cloudy
4:25 PM 33.8 °F 30.8 °F 28.4 °F 81% 29.84 in 7.0 mi West 3.5 mph - N/A   Mostly Cloudy
4:53 PM 34.0 °F 29.8 °F 30.0 °F 85% 29.85 in 6.0 mi SW 4.6 mph - N/A   Partly Cloudy
5:53 PM 33.1 °F 28.7 °F 28.9 °F 85% 29.86 in 7.0 mi SW 4.6 mph - N/A   Partly Cloudy
6:53 PM 30.0 °F 26.5 °F 28.9 °F 96% 29.89 in 6.0 mi SSW 3.5 mph - N/A   Clear
7:53 PM 30.0 °F - 28.9 °F 96% 29.91 in 3.0 mi Calm Calm - N/A   Clear
8:53 PM 27.0 °F - 27.0 °F 100% 29.93 in 3.0 mi Calm Calm - N/A   Clear
9:53 PM 26.1 °F - 26.1 °F 100% 29.94 in 3.0 mi Calm Calm - N/A   Clear
9:56 PM 26.6 °F - 24.8 °F 93% 29.92 in 2.0 mi Calm Calm - N/A   Clear
10:03 PM 24.8 °F - 24.8 °F 100% 29.92 in 3.0 mi Calm Calm - N/A Fog Patches of Fog
10:04 PM 24.8 °F - 24.8 °F 100% 29.92 in 1.0 mi Calm Calm - N/A Fog Patches of Fog
10:53 PM 24.1 °F - 24.1 °F 100% 29.94 in 0.2 mi Calm Calm - N/A Fog Light Freezing Fog
11:53 PM 23.0 °F - 21.9 °F 96% 29.94 in 0.2 mi Calm Calm - N/A Fog Light Freezing Fog